RH
59 59 62 63 64 64 64 66 66 66 63 56 49 46 45 42 40 40 39 39 38 36 36 35 35 39 40 37 35 34 34 34 35 36 35 34 35 35 35 35 34 34 35 35 34 34 36 38 38 39 40 40 40 40 40 39 39 40 43 45 47 49 51 51 53 57 61 63 63 67 72 77 86 91 92 92 92 92 92 90 88 86 86 88 88
58 61 63 64 64 62 62 63 64 62 58 52 50 50 47 43 40 39 40 40 39 38 37 38 41 43 40 35 34 34 35 34 34 35 35 34 34 35 35 34 34 36 38 38 38 39 41 43 42 42 41 40 40 39 38 37 37 40 43 46 47 49 50 51 52 55 61 64 64 65 68 74 82 89 92 93 93 93 93 91 90 87 85 86 87
57 63 65 65 64 62 60 61 60 58 54 53 53 52 49 44 39 38 39 39 40 42 42 44 43 39 36 35 35 35 34 34 34 35 34 33 34 34 35 36 37 40 41 41 41 41 43 43 42 40 39 39 39 39 38 37 37 39 42 45 46 47 49 50 51 53 57 62 63 64 66 70 78 86 91 93 93 93 92 91 90 89 86 85 86
57 63 65 65 65 64 62 61 58 55 53 54 55 54 51 46 41 39 38 39 43 46 46 44 39 36 35 36 35 34 33 34 34 34 34 33 34 35 37 39 41 42 42 41 40 40 42 42 41 39 38 38 38 38 38 37 37 38 40 43 45 46 48 49 50 52 54 57 61 62 64 66 73 82 87 89 90 91 93 94 93 91 89 87 87
59 64 66 65 65 64 62 60 57 53 50 52 54 53 50 46 42 40 39 42 46 46 44 40 37 36 36 35 34 34 33 34 35 34 33 33 36 39 41 42 43 43 41 40 38 39 41 41 41 41 40 39 39 38 37 37 36 37 38 40 43 45 47 48 49 50 51 53 56 59 61 63 67 75 83 86 87 90 95 98 96 95 93 92 92
60 64 67 67 65 63 61 58 55 50 47 47 49 49 47 45 43 43 45 48 48 45 42 39 37 35 35 35 34 34 33 34 36 35 35 36 39 42 43 44 43 42 40 38 38 39 41 42 43 43 42 41 40 39 38 37 37 37 38 40 41 42 44 45 47 47 49 50 52 55 58 60 62 68 76 83 87 91 94 97 98 98 98 97 96
58 63 68 68 66 62 58 57 55 51 47 44 45 47 48 46 46 49 53 52 49 45 41 37 36 35 35 35 35 35 36 37 37 38 37 37 40 43 44 44 44 42 40 39 40 40 42 44 44 44 44 43 43 41 39 38 38 39 39 40 41 40 41 43 44 46 48 50 52 54 56 58 61 65 71 77 85 90 92 95 98 98 98 99 99
61 64 67 68 67 63 59 59 58 53 49 46 47 50 51 51 54 57 57 53 49 44 40 37 37 36 36 36 37 37 38 39 40 40 38 38 40 43 44 44 44 43 42 41 42 42 43 44 45 45 44 44 45 44 42 41 40 40 40 41 41 40 40 41 43 45 47 48 50 52 54 57 60 63 66 70 77 85 92 95 98 98 97 96 98
65 67 67 67 65 62 61 62 60 57 54 54 54 55 55 57 60 61 58 53 48 43 40 39 38 38 38 38 39 40 40 41 41 41 39 39 40 41 41 42 42 43 43 42 43 44 44 44 45 45 45 45 46 46 46 45 44 43 42 42 41 40 39 39 40 42 43 44 45 47 48 51 55 60 65 68 72 80 90 97 98 98 97 95 95
67 67 67 66 64 63 63 63 63 63 64 63 61 58 58 60 62 61 56 51 45 41 41 41 40 39 39 40 41 42 42 43 42 42 40 39 39 39 38 39 40 40 41 40 41 43 44 45 45 45 45 46 46 47 48 48 48 46 45 43 42 41 40 40 41 43 43 44 45 45 45 48 51 55 60 66 69 74 83 93 98 99 98 96 94
66 67 67 65 64 65 65 65 66 66 66 65 63 60 60 62 62 59 52 46 43 42 42 41 41 40 41 42 44 44 44 44 43 43 42 40 39 38 36 37 38 38 39 39 39 40 42 44 45 45 45 45 46 47 47 47 48 48 47 46 45 44 43 43 44 46 47 48 48 47 47 49 50 51 54 60 65 69 74 83 93 98 98 96 94
67 67 67 67 67 67 67 68 69 67 65 66 66 64 65 66 63 57 50 45 44 44 43 42 42 42 43 44 44 44 45 45 44 43 42 41 40 38 37 37 37 38 38 39 39 39 40 42 44 44 44 44 44 44 44 44 45 45 45 46 47 47 46 46 46 48 49 50 50 50 49 49 49 49 51 54 59 65 68 72 81 91 97 97 96
67 66 67 67 68 68 69 71 71 70 69 71 71 70 69 67 63 58 52 48 45 44 44 44 43 44 44 45 45 46 46 46 45 45 44 42 41 39 38 38 38 38 38 38 39 39 40 41 42 42 43 43 44 43 42 42 43 43 43 43 44 44 45 46 47 48 50 51 51 51 50 49 49 48 48 50 54 59 63 66 70 78 87 94 97
67 65 64 65 67 69 71 74 75 75 74 74 73 71 68 64 59 57 54 49 46 45 45 45 44 45 45 46 46 46 46 47 47 46 45 44 42 40 39 38 36 36 36 36 36 37 38 39 40 40 41 42 43 42 40 40 40 41 41 41 40 39 40 43 45 47 49 50 51 50 49 48 47 46 45 46 50 55 59 63 66 68 72 81 91
64 61 62 67 73 76 76 77 77 77 77 76 73 70 68 64 60 57 54 50 46 45 45 45 45 46 47 47 47 46 47 49 50 49 47 45 43 40 37 35 34 33 34 34 34 35 35 36 37 39 40 40 40 39 37 36 35 36 37 37 36 34 34 36 39 41 44 46 47 48 46 45 44 44 44 45 47 53 58 61 65 66 65 69 78
61 63 67 73 78 81 81 80 77 74 74 75 72 69 68 65 61 57 54 52 48 46 45 45 45 47 48 48 48 48 50 52 52 51 49 47 45 40 34 30 31 31 31 31 31 30 30 31 33 36 37 37 36 35 33 31 30 30 31 31 31 30 29 30 31 34 37 39 41 43 42 41 41 42 44 45 47 52 56 59 62 62 60 61 66
69 72 72 73 74 75 77 78 74 71 72 73 70 68 67 64 60 57 55 53 51 48 46 46 47 48 49 50 50 50 52 54 54 52 49 47 46 42 35 29 28 28 27 26 25 25 26 28 30 32 32 33 33 32 30 28 27 27 27 27 28 27 27 27 27 28 30 32 35 36 36 38 40 41 43 44 45 48 51 55 59 57 55 58 62
73 73 71 70 69 68 70 73 72 70 70 70 69 67 66 62 60 58 57 55 52 49 48 48 50 50 50 51 51 52 54 55 53 50 48 45 42 39 33 27 24 24 23 22 22 23 26 29 30 30 30 29 29 28 27 26 26 26 26 26 27 27 27 26 25 24 25 26 29 31 32 34 37 40 42 44 45 47 48 51 53 53 54 56 59
66 66 67 67 65 63 66 69 70 68 67 67 66 65 63 60 59 60 59 55 52 51 50 50 52 52 52 52 54 55 56 55 51 47 45 42 38 34 28 23 21 20 20 20 21 23 26 28 29 28 27 26 26 26 26 25 25 25 25 25 24 25 25 25 23 22 21 21 23 26 28 29 32 35 38 41 45 46 46 48 49 51 55 57 58
60 61 63 66 65 64 65 67 68 67 65 65 64 63 62 61 62 61 59 56 53 52 52 52 52 52 53 55 57 58 56 52 48 46 44 42 38 30 23 19 19 18 18 18 20 22 25 27 27 27 27 27 27 26 25 25 24 24 23 22 21 21 21 21 21 20 19 18 19 21 24 25 26 29 31 35 40 43 44 46 47 49 53 56 58
60 60 62 64 66 66 65 66 66 65 65 64 64 63 64 65 64 62 60 59 56 55 54 54 53 54 56 58 58 58 54 49 47 45 42 39 34 26 19 18 18 17 16 17 18 20 23 25 27 27 27 26 26 25 23 22 21 21 20 20 20 20 20 19 19 19 19 18 17 17 20 21 23 24 25 29 32 34 36 40 44 47 49 52 55
61 60 60 61 65 66 66 65 65 65 65 64 64 64 66 66 64 62 62 60 58 56 55 54 55 56 56 56 53 50 47 43 41 39 36 33 28 22 18 18 17 15 15 16 17 19 21 22 24 25 25 24 23 22 21 20 20 19 19 19 19 20 20 20 19 19 20 19 18 18 18 19 20 22 23 25 28 28 28 32 37 41 44 48 51
59 58 58 60 64 66 66 66 66 66 66 65 65 67 67 65 63 63 63 60 57 55 55 54 55 54 51 49 45 40 36 34 32 30 28 27 24 20 18 17 15 14 14 16 17 18 18 19 20 21 21 22 22 21 20 20 20 19 19 19 19 19 20 20 19 20 20 20 20 20 19 19 19 21 22 25 27 27 27 28 28 29 32 37 42
57 58 59 61 63 65 67 68 68 68 67 67 68 69 68 65 64 63 62 59 55 54 53 52 51 49 46 43 38 34 31 28 26 24 23 22 20 18 17 15 14 14 14 16 17 17 17 17 18 19 19 20 21 22 21 20 20 20 19 19 19 19 19 19 20 20 21 21 21 21 21 21 21 21 23 25 27 28 27 27 27 26 26 27 30
60 61 62 63 65 66 66 67 67 66 65 66 68 68 66 64 63 62 60 55 52 50 50 50 48 46 42 38 34 30 27 24 23 22 22 20 18 16 14 13 12 12 13 16 18 19 18 17 17 18 19 19 18 20 22 22 21 20 20 19 19 19 19 19 19 20 21 22 22 22 22 22 22 22 23 23 26 28 28 27 27 27 26 26 25
62 64 65 66 66 66 65 64 64 63 62 64 65 66 64 62 61 60 57 54 52 51 49 47 44 43 39 34 30 27 24 23 22 21 19 17 14 13 11 10 10 12 13 16 17 18 19 19 18 16 17 19 18 19 21 22 21 20 19 19 19 19 19 19 19 20 20 21 21 22 23 22 23 23 22 21 22 25 27 27 27 27 26 25 25
64 65 66 66 66 65 64 63 62 61 63 64 65 65 62 60 58 58 57 57 56 55 52 47 43 41 38 32 27 25 23 22 20 18 15 14 12 12 11 9 10 12 15 17 17 17 18 18 18 16 15 16 18 17 18 20 21 20 20 19 19 20 20 20 20 20 21 21 21 22 22 22 23 23 23 22 21 22 24 25 25 27 26 25 25
65 66 66 66 65 65 64 63 62 63 65 67 66 64 62 59 58 58 57 58 58 58 56 50 45 40 34 29 27 25 22 20 18 16 15 13 11 11 11 10 11 13 15 15 17 18 17 16 17 17 16 15 15 14 14 15 18 19 20 20 20 20 20 20 21 21 22 22 22 22 22 22 23 24 24 24 22 21 22 22 22 24 24 22 24
65 66 66 65 65 65 64 63 63 65 67 67 65 64 62 60 59 58 57 57 56 55 53 50 45 40 34 30 28 24 21 19 17 15 13 11 9 9 9 10 11 12 13 14 15 16 17 18 19 21 20 18 16 14 13 13 13 15 17 19 20 21 20 20 21 21 22 22 22 23 23 23 23 24 24 24 23 22 21 21 21 22 21 21 23
66 67 66 66 66 65 64 63 65 67 68 67 64 63 62 59 58 57 56 55 54 51 48 46 42 38 32 27 23 19 18 17 15 13 11 9 8 8 8 9 11 12 13 14 15 15 16 19 21 21 21 20 19 17 15 14 13 13 14 16 18 21 22 21 22 21 22 22 23 23 23 23 23 24 24 24 24 23 21 21 21 20 20 21 22
67 66 66 67 66 65 64 66 67 68 67 65 64 62 61 59 57 56 54 52 50 47 44 40 37 33 27 21 16 15 15 14 13 11 9 8 8 7 8 11 13 15 16 18 18 18 18 19 20 20 20 20 20 19 18 17 16 15 15 15 17 19 21 22 23 22 22 22 23 23 23 24 24 24 24 24 25 24 23 22 21 20 20 21 23
67 66 66 67 66 66 67 68 69 69 67 65 63 61 59 58 57 55 52 49 46 42 39 35 31 27 22 17 14 14 13 12 11 9 8 7 7 8 10 12 15 17 19 21 22 22 21 20 20 20 19 19 19 20 20 19 18 16 15 15 17 18 20 21 22 23 23 22 22 22 23 24 25 25 24 24 25 25 26 25 23 23 22 23 24
66 65 67 69 69 69 69 69 70 69 66 63 61 59 58 57 56 53 49 45 42 39 34 28 23 20 18 15 14 14 13 11 10 8 7 7 7 8 11 13 15 17 19 20 21 22 21 20 20 19 20 20 20 20 20 20 20 17 15 15 16 18 19 20 20 21 22 23 23 23 23 24 25 26 25 25 25 25 26 26 25 25 25 25 25
66 66 69 71 71 70 69 70 69 67 64 62 60 59 58 56 54 50 45 41 37 33 25 19 16 16 16 15 14 13 12 10 9 7 7 7 8 10 13 15 17 20 21 21 21 21 21 20 20 19 19 20 20 20 20 20 20 18 16 16 17 18 19 20 20 20 21 22 23 23 24 24 24 25 26 26 25 25 26 26 27 27 27 26 27
66 67 70 71 70 69 69 69 68 65 62 61 60 58 57 55 51 46 41 36 30 23 17 14 14 15 15 15 14 12 11 9 8 8 8 9 11 13 15 18 20 21 22 22 22 21 21 21 21 21 20 20 20 19 18 17 16 17 17 17 19 19 19 19 20 20 21 22 22 23 24 24 24 25 26 26 26 25 25 25 26 27 27 27 27
67 68 69 69 69 69 69 68 66 64 63 63 60 56 53 51 47 41 34 27 21 16 14 14 14 15 15 14 13 11 10 8 8 8 9 11 13 15 17 19 20 21 21 21 20 20 21 21 22 22 22 22 21 20 18 15 14 15 17 18 19 20 20 20 21 21 21 21 22 21 22 23 24 25 25 25 25 26 25 25 26 27 26 27 27
66 67 67 68 68 68 67 66 66 66 65 61 55 50 46 42 36 30 25 19 15 13 13 14 14 15 15 13 12 10 9 8 8 9 11 13 15 17 20 21 21 20 20 20 19 19 19 20 20 21 22 22 22 22 20 17 15 15 17 18 18 19 20 20 22 22 22 23 23 22 21 21 23 24 25 25 25 25 25 25 26 26 26 25 26
65 65 67 68 70 68 64 62 63 64 61 55 48 42 38 33 27 22 19 15 13 12 13 14 14 14 14 12 11 9 8 8 9 11 13 15 17 20 21 20 20 18 18 18 17 17 17 18 19 19 19 20 20 20 20 19 17 16 17 18 18 18 19 20 21 21 22 23 23 24 23 22 22 23 24 25 26 26 25 25 25 25 25 25 25
65 64 65 68 70 68 64 61 61 58 54 49 44 39 34 28 23 19 15 13 12 12 13 14 14 13 12 11 9 8 8 9 10 12 14 17 19 21 21 20 18 17 17 17 16 16 16 15 16 16 17 16 16 16 16 17 16 16 17 17 17 16 17 19 20 20 21 22 22 23 24 24 24 24 25 25 25 25 25 25 25 25 25 25 24
65 66 68 70 70 67 65 63 61 56 51 46 41 37 32 26 20 16 14 12 12 13 14 14 13 12 11 9 8 8 8 9 10 12 15 19 21 22 21 19 18 17 17 18 17 16 16 15 14 14 14 14 14 13 13 14 15 15 16 16 15 14 15 16 17 18 19 21 22 23 23 24 24 25 25 26 26 26 25 25 24 25 25 26 25
70 72 73 71 69 67 66 64 61 56 52 47 43 39 34 26 21 18 15 13 13 14 14 13 12 11 10 9 8 9 10 10 11 14 17 20 22 22 20 19 18 17 17 17 17 17 16 15 15 15 14 14 14 14 13 13 14 15 15 16 16 15 15 15 15 16 17 19 20 21 23 23 24 24 25 25 26 26 27 27 25 25 26 26 27
76 76 74 71 69 67 66 65 62 58 54 51 47 42 35 29 27 24 18 14 15 17 15 13 12 10 8 9 10 11 13 14 16 18 19 19 20 19 19 18 17 17 17 17 17 17 16 15 15 15 14 14 14 14 14 14 15 15 15 16 16 16 16 16 15 15 15 16 16 18 21 22 22 22 24 24 24 24 26 27 27 25 25 26 27
81 78 73 70 69 68 66 64 61 58 55 51 46 40 35 32 29 24 18 18 22 22 19 17 14 11 9 9 11 14 16 18 21 22 22 20 18 17 18 18 17 17 17 16 16 16 15 15 14 14 14 15 15 15 16 16 16 16 16 16 16 16 16 16 16 16 16 16 16 16 19 21 22 22 23 23 23 23 25 27 28 28 27 27 27
81 77 72 70 68 67 65 62 59 57 54 49 43 38 34 31 27 23 21 23 25 24 21 19 17 14 11 11 12 16 20 22 24 24 22 20 18 17 17 17 17 17 17 16 15 15 15 15 15 15 15 16 16 17 17 17 17 17 17 17 17 17 17 16 17 17 17 18 18 18 18 20 21 22 23 23 23 24 25 26 27 28 29 29 28
80 76 72 69 67 65 63 61 58 55 51 45 39 36 33 29 26 25 25 25 24 22 20 19 18 17 15 13 14 18 23 24 24 23 22 20 19 18 19 19 19 20 19 18 16 15 16 16 16 17 17 17 18 18 18 18 18 18 18 18 18 19 18 18 19 18 18 19 19 19 19 20 21 22 24 25 26 26 26 26 27 27 28 28 27
77 73 70 68 66 65 63 59 55 51 46 42 38 34 31 28 27 27 26 24 22 21 20 19 18 17 15 14 15 20 24 25 24 23 22 21 20 19 19 21 22 22 21 19 17 17 17 18 18 18 19 19 19 19 19 19 20 20 20 19 20 20 20 20 20 20 20 20 20 20 20 20 21 22 22 24 24 25 25 26 27 27 26 26 27
74 71 68 66 66 64 61 55 50 47 46 42 38 33 29 28 28 27 25 22 20 19 18 18 16 14 12 13 17 22 26 27 25 23 23 22 21 19 20 22 22 22 21 21 20 20 19 19 19 19 19 20 21 21 21 22 22 22 22 22 21 21 22 22 22 22 22 22 21 22 22 22 23 23 23 24 24 24 25 26 26 27 27 27 28
69 67 65 65 65 63 57 52 48 48 46 42 36 31 30 29 28 26 23 21 19 19 19 19 18 15 13 15 19 23 25 25 24 24 24 23 22 22 23 24 24 24 24 24 25 24 24 23 23 23 22 22 23 23 23 23 23 23 23 23 23 23 23 23 23 23 24 24 24 24 24 24 25 25 26 26 26 27 27 28 28 29 29 30 30
70 69 68 67 66 62 56 52 49 47 44 39 33 30 31 31 28 25 22 20 18 18 20 21 20 19 18 19 21 22 23 23 23 23 24 24 24 25 26 27 27 28 28 29 29 29 29 29 28 28 28 28 27 27 26 25 24 24 24 24 24 24 24 24 24 25 25 26 26 26 27 28 28 28 28 29 29 30 30 31 31 32 32 34 34
68 65 63 62 59 55 51 49 47 44 41 37 33 33 33 31 26 22 21 19 17 18 21 23 23 24 25 25 24 23 23 23 23 24 24 25 26 27 28 29 29 30 30 30 31 31 31 32 32 32 32 32 31 31 30 30 29 28 27 26 26 26 26 26 26 27 27 28 28 28 29 29 29 30 30 31 31 32 33 33 34 35 35 37 38
58 57 56 56 54 52 48 46 43 41 40 39 37 34 32 27 23 21 21 20 19 19 21 23 26 28 29 27 25 23 23 24 24 25 26 27 28 29 29 29 30 31 31 31 31 31 32 32 32 32 32 32 32 32 32 32 32 32 31 30 29 29 30 30 30 30 29 29 29 29 29 29 30 31 31 32 32 33 35 35 36 37 38 38 39